Regional Weather Roundup
Issued by NWS Charleston, SC

Current Version | Previous Version | Text Only | Print | Product List | Glossary On
Versions: 1 2 3 4 5 6 7 8 9 10 11 12 13 14 15 16 17 18 19 20 21 22 23 24 25 26 27 28 29 30 31 32 33 34 35 36 37 38 39 40 41 42 43 44 45 46 47 48 49 50
000 ASUS42 KCHS 300310 RWRCHS REGIONAL WEATHER ROUNDUP NATIONAL WEATHER SERVICE CHARLESTON SC 1100 PM EDT FRI AUG 29 2014 NOTE: "FAIR" INDICATES FEW OR NO CLOUDS BELOW 12,000 FEET WITH NO SIGNIFICANT WEATHER AND/OR OBSTRUCTIONS TO VISIBILITY. NOT ALL STATIONS ARE QUALITY CONTROLLED BY THE NATIONAL WEATHER SERVICE. USE DATA WITH CAUTION...ESPECIALLY DEWPOINT OBSERVATIONS. SCZ027-030-031-034>040-042>050-300400- ...SOUTH CAROLINA... CITY SKY/WX TMP DP RH WIND PRES REMARKS N CHARLESTON PTCLDY 80 74 81 CALM 30.13R WATERFRONT PRK N/A 81 N/A N/A SE5 N/A FORT JOHNSON NOT AVBL MOUNT PLEASANT FAIR 75 75 100 CALM 30.13R JOHNS ISLAND PTCLDY 77 75 94 CALM 30.13R PINOPOLIS N/A 82 75 78 CALM 30.04S MONCKS CORNER N/A 79 77 94 CALM 30.13R SUMMERVILLE MOCLDY 75 75 100 CALM 30.14R BEAUFORT MCAS CLEAR 79 74 84 CALM 30.12R BEAUFORT ARPT FAIR 77 73 88 CALM 30.11S HILTON HEAD IS PTCLDY 82 73 74 SE3 30.13R GEORGETOWN NOT AVBL WALTERBORO PTCLDY 73 73 100 E5 30.13S ORANGEBURG CLOUDY 79 66 64 SE5 30.12S BARNWELL FAIR 81 70 69 SE6 30.12S AIKEN FAIR 79 70 73 SE6 30.16R MANNING FAIR 79 79 100 CALM 30.14R KINGSTREE NOT AVBL COLUMBIA CLEAR 81 66 60 E3 30.11R SUMTER CLEAR 79 74 85 SE7 30.11S FLORENCE CLEAR 77 72 84 SE5 30.14R MYRTLE BEACH CLEAR 81 73 78 SE10 30.14R N MYRTLE BEACH CLEAR 82 74 76 SE6 30.14R $$ GAZ063-065-086>088-099>101-113>116-118-119-134-136>141-150-300400- ...GEORGIA... CITY SKY/WX TMP DP RH WIND PRES REMARKS SAVANNAH ARPT CLEAR 80 73 79 E7 30.12R HUNTER AAF CLEAR 79 74 86 E2 30.10R FORT STEWART NOT AVBL STATESBORO NOT AVBL SYLVANIA PTCLDY 76 72 88 SE3 30.12R CLAXTON NOT AVBL THOMSON CLEAR 82 68 62 SE6 30.14R AUGUSTA-BUSH CLEAR 75 68 78 SE7 30.10R AUGUSTA-DANIEL CLEAR 81 68 64 SE7 30.12R SWAINSBORO FAIR 82 73 74 S9 30.12R VIDALIA N/A 81 72 74 S5 30.11R ALMA MOCLDY 80 72 76 SE6 30.09S WAYCROSS CLEAR 83 77 82 SE6 30.09S HX 92 JESUP N/A 81 77 89 CALM 30.11R BRUNSWICK CLEAR 82 73 74 SE6 30.11S SAINT SIMONS PTCLDY 83 75 77 SE12 30.10R HX 90 $$ SCZ027-028-034-036>038-045-046-048>050-GAZ119-141-300400- ...LAKE AND SUPPLEMENTAL COASTAL OBSERVATIONS... STATION/POSITION TIME TEMP WIND PRES WAVE SWELL AIR SEA DIR/SP/G HT/PER HT/PER/DIR (UTC) (F) (DEG/KT/KT) (MB) (FT/S) (FT/S/D) UPR LAKE MARION NOT AVBL WINYAH BAY 0200 82 120/ 9 1019.0S LAKE MURRAY 0200 82 130/ 6/ 10 1018.6S ACE BASIN NERRS 0200 77 CALM 1020.0R FORT PULASKI 0300 130/ 5/ 7 1020.0R SAPELO ISLAND 0200 82 140/ 6 1019.0S $$ ANZ835-935-AMZ111-154-330-350-352-354-374-450-454-472-300400- ...C-MAN AND BUOY OBSERVATIONS... STATION/POSITION TIME TEMP WIND PRES WAVE SWELL AIR SEA DIR/SP/G HT/PER HT/PER/DIR (UTC) (F) (DEG/KT/KT) (MB) (FT/S) (FT/S/D) FOLLY BEACH CMAN 0200 81 150/ 6/ 7 1020.4R BUOY 41004 0300 83 83 160/ 8/ 10 1019.7R 3/ 8 2/ 8 BUOY 41008 0300 84 84 150/ 16/ 17 1019.1R 2/ 8 2/ 90/ 8 5E ST. MARYS GA 0300 84 N/A 3/ 8 FRYING PAN BUOY NOT AVBL BUOY 41025 0300 79 50/ 6/ 8 1021.1R 4/ 8 3/130/ 8 CAPE LOOKOUT NC 0200 80 70/ 3/ 3 1020.8R BUOY 41002 0224 81 83 120/ 8/ 10 1021.4F 3/ 8 3/110/ 8 BUOY 41010 0300 83 84 60/ 4/ 4 1020.2R 3/ 7 3/ 90/ 7 BUOY 41012 NOT AVBL ST AUGUSTINE FL 0300 79 190/ 4/ 4 1019.8F CAPERS NEARSHORE 0200 81 140/ 8/ 10 N/A FRIPP NEARSHORE NOT AVBL $$

USA.gov is the U.S. government's official web portal to all federal, state and local government web resources and services.